SCOUT A DEB, 2580

Orbit data source: Space-Track

SCOUT A DEB, 2580 is space debris in LEO originally from a launch on Thu, 18 Aug 1966 UTC launched from the Air Force Western Test Range (AFWTR). Debris objects in space refer to the collection of defunct objects orbiting the Earth. Examples of debris include non-operational satellites, rocket bodies, and fragments generated from explosions, collisions, or faulty payload assembly.

Loading next visibility...
Identifier
2580, 1966-076C
Orbit
LEO
Country
Flag of USUS
Related business
Manufacturer
Unknown
Mission
Spacecraft
Bus & Motor
Unknown
Mass
Unknown
Launch date (UTC)
1966-08-18 (60 years ago)
Launch vehicle
Unknown
Launch site
Air Force Western Test Range (AFWTR)
Object type
Payload
Rocket body
Debris
Shape & HBR
Unknown shape, 0.1 m
Radar Cross Section
Small (<0.1 m²)

Expand to show TLE details & history
Last TLE update: 2 days ago

TLE from 2 days ago
0 SCOUT A DEB
1 02580U 66076C   26119.45989816  .00000270  00000-0  24368-3 0  9994
2 02580  89.1321 291.0513 0096454 112.1500 311.5027 13.78721142985197
Epoch: 2026-04-29T11:02Z
TLE epoch observation values (Epoch: 2026-04-29T11:02:15.201Z)
Latitude
62.89312°
Longitude
-90.24556°
Altitude
932.743 km
Speed
7.415 km/s
True Right ascension
19h 30m 57s
True Declination
62° 45' 24"
Sunlit
Object was in daylight at epoch
Visualization orbit readout
Latitude
Unknown
Longitude
Unknown
Altitude
Unknown
Speed
Unknown
Apparent Right ascension
Unknown
Apparent Declination
Unknown
Sunlit
N/A
Visualization observer readout
Local Sidereal Time
16:50:06
Azimuth
Unknown
Elevation
Unknown
Doppler factor
Unknown
Orbital elements
Apogee altitude
1,036.268 km
Perigee altitude
894.604 km
Semi-major axis
7,343.573 km
Eccentricity
0.00965
Inclination
89.1321°
RAAN
291.0513°
Arg. of periapsis
112.15°
True anomaly
310.66829°
Mean anomaly
311.5027°
Eccentric anomaly
311.08616°
Mean motion
3.44891 °/min
Orbital period
104.38 mins
BSTAR
0.00024368
Loading maneuver chart data...
Computing Atmospheric mass density...
Loading historical data...
Loading historical data...
Loading historical data...
Loading historical data...
Loading historical data...
Loading historical data...
Loading historical data...

Documentation

Showing up to 5 results
|